Location: *
(51.4660°N, 0.3360°W)
Time: 15:13:31
(UTC+00:00)

Nadezhda 3 Rocket - Pass Details

Date: 19 September 2019
Orbit: 958 x 999 km, 82.9° (Epoch: 20 October)

Event Time Altitude Azimuth Distance (km) Brightness Sun altitude
Exits shadow 20:58:00 60° 138° (SE) 1,095 3.9 -25.3°
Maximum altitude 20:58:50 68° 95° (E) 1,040 3.9 -25.4°
Drops below altitude 10° 21:05:01 10° 14° (NNE) 2,726 6.6 -26.2°
Sets 21:07:33 0° 12° (NNE) 3,684 7.4 -26.5°
